EW8735 Weather Reports


time (UTC)temp
F
wind
direction
speed
knots
gust
knots
rain 1hr
in
rain 24hr
in
rain mn
in
humidity
%
barometer
mb
20260906113055 51 80 0.0 0.0 0.00 0.00 0.00 82 1011.4
20260906111553 51 80 0.0 0.0 0.00 0.00 0.00 81 1011.3
20260906110052 51 80 0.0 0.0 0.00 0.00 0.00 80 1011.4
20260906104551 51 80 0.0 0.0 0.00 0.00 0.00 80 1011.3
20260906103054 52 80 0.0 0.0 0.00 0.00 0.00 79 1011.3
20260906101550 52 80 0.0 0.0 0.00 0.00 0.00 79 1011.3
20260906100049 52 80 0.0 0.0 0.00 0.00 0.00 80 1011.4
20260906094559 52 80 0.0 0.0 0.00 0.00 0.00 81 1011.3
20260906093049 52 80 0.0 0.0 0.00 0.00 0.00 78 1011.3
20260906091600 52 80 0.0 0.0 0.00 0.00 0.00 78 1011.4
20260906090044 52 80 0.0 0.0 0.00 0.00 0.00 78 1011.5
20260906084540 53 80 0.0 0.0 0.00 0.00 0.00 77 1011.6
20260906083038 53 80 0.0 0.0 0.00 0.00 0.00 77 1011.9
20260906081539 54 80 0.0 0.0 0.00 0.00 0.00 77 1011.8
20260906080038 54 80 0.0 0.0 0.00 0.00 0.00 74 1012.1
20260906074531 55 80 0.0 0.0 0.00 0.00 0.00 74 1012.1
20260906073029 56 80 0.0 0.0 0.00 0.00 0.00 74 1012.2
20260906071524 55 80 0.0 0.0 0.00 0.00 0.00 74 1012.5
20260906070022 55 80 0.0 0.0 0.00 0.00 0.00 75 1012.5
20260906064521 55 80 0.0 0.0 0.00 0.00 0.00 75 1012.5
20260906063024 55 80 0.0 0.0 0.00 0.00 0.00 75 1012.6
20260906061524 54 80 0.0 0.0 0.00 0.00 0.00 75 1012.6
20260906060021 55 80 0.0 0.0 0.00 0.00 0.00 74 1012.5
20260906054519 55 80 0.0 0.0 0.00 0.00 0.00 73 1012.6
20260906053019 56 80 0.0 0.0 0.00 0.00 0.00 71 1012.5
20260906051519 57 80 0.0 0.0 0.00 0.00 0.00 68 1012.6
20260906050019 58 80 0.0 0.0 0.00 0.00 0.00 66 1012.7
20260906044518 59 80 0.0 0.0 0.00 0.00 0.00 65 1012.9
20260906043028 61 80 0.0 0.0 0.00 0.00 0.00 61 1013.0
20260906041518 62 80 0.0 0.0 0.00 0.00 0.00 58 1013.0
20260906040017 63 80 0.0 0.0 0.00 0.00 0.00 56 1012.9
20260906034517 63 80 0.0 0.0 0.00 0.00 0.00 56 1012.9
20260906033023 62 80 0.0 0.0 0.00 0.00 0.00 58 1013.1
20260906031517 62 80 0.0 0.0 0.00 0.00 0.00 58 1013.0
20260906030021 62 80 0.0 0.0 0.00 0.00 0.00 59 1012.7
20260906024514 63 80 0.0 0.0 0.00 0.00 0.00 58 1012.4
20260906023015 64 80 0.0 0.0 0.00 0.00 0.00 56 1012.5
20260906021515 65 80 0.0 0.0 0.00 0.00 0.00 53 1012.5
20260906020014 66 79 0.0 0.0 0.00 0.00 0.00 51 1012.4
20260906014513 67 83 0.0 0.0 0.00 0.00 0.00 50 1012.6
20260906013016 68 83 0.0 0.0 0.00 0.00 0.00 48 1012.6
20260906011512 69 83 0.0 0.0 0.00 0.00 0.00 47 1012.5
20260906010012 69 83 0.0 0.0 0.00 0.00 0.00 46 1012.5
20260906004511 69 83 0.0 0.0 0.00 0.00 0.00 47 1012.4
20260906003010 69 84 0.0 0.0 0.00 0.00 0.00 46 1012.3
20260906001517 69 84 0.0 0.0 0.00 0.00 0.00 49 1012.3
20260906000030 69 84 0.0 0.0 0.00 0.00 0.00 47 1012.3
20260905234508 69 85 0.0 0.0 0.00 0.00 0.00 48 1012.4
20260905233009 69 85 0.0 0.0 0.00 0.00 0.00 48 1012.4
20260905231507 70 85 0.0 0.0 0.00 0.00 0.00 48 1012.2
20260905230006 69 85 0.0 0.0 0.00 0.00 0.00 48 1012.5
20260905224503 68 85 0.0 0.0 0.00 0.00 0.00 48 1012.7
20260905223100 67 85 0.0 0.0 0.00 0.00 0.00 47 1012.9
20260905221558 67 85 0.0 0.0 0.00 0.00 0.00 53 1013.1
20260905220059 66 91 0.0 0.0 0.00 0.00 0.00 55 1013.0
20260905214554 65 95 0.0 0.0 0.00 0.00 0.00 55 1013.2
20260905213054 64 109 0.0 0.0 0.00 0.00 0.00 58 1014.1
20260905211556 65 112 0.0 0.0 0.00 0.00 0.00 56 1013.5
20260905210108 65 127 0.0 0.0 0.00 0.00 0.00 52 1013.6
20260905204558 65 133 0.0 0.0 0.00 0.00 0.00 51 1013.7
20260905203053 66 133 0.0 0.0 0.00 0.00 0.00 51 1013.7
20260905201551 65 141 0.0 0.0 0.00 0.00 0.00 51 1013.8
20260905200049 64 154 0.0 0.0 0.00 0.00 0.00 53 1014.1
20260905194604 65 155 0.0 0.0 0.00 0.00 0.00 49 1014.0
20260905193048 66 156 0.0 0.0 0.00 0.00 0.00 51 1013.9
20260905191550 65 156 0.0 0.0 0.00 0.00 0.00 51 1013.9
20260905190042 63 155 0.0 0.0 0.00 0.00 0.00 54 1014.4
20260905184555 63 155 0.0 0.0 0.00 0.00 0.00 56 1014.4
20260905183046 62 136 0.0 0.0 0.00 0.00 0.00 58 1014.4
20260905181546 62 136 0.0 0.0 0.00 0.00 0.00 57 1014.6
20260905180036 62 136 0.0 0.0 0.00 0.00 0.00 58 1014.9
20260905174535 61 136 0.0 0.0 0.00 0.00 0.00 58 1014.9
20260905173033 60 136 0.0 0.0 0.00 0.00 0.00 63 1014.9
20260905171528 60 136 0.0 0.0 0.00 0.00 0.00 63 1014.9
20260905170026 59 132 0.0 0.0 0.00 0.00 0.00 70 1014.9
20260905164525 58 132 0.0 0.0 0.00 0.00 0.00 71 1014.7
20260905163018 57 132 0.0 0.0 0.00 0.00 0.00 74 1014.7
20260905161514 56 132 0.0 0.0 0.00 0.00 0.00 77 1014.6
20260905160019 55 125 0.0 0.0 0.00 0.00 0.00 79 1014.6
20260905154513 55 118 0.0 0.0 0.00 0.00 0.00 79 1014.6
20260905153013 54 118 0.0 0.0 0.00 0.00 0.00 81 1014.6
20260905151513 54 120 0.0 0.0 0.00 0.00 0.00 83 1014.5
20260905150012 53 121 0.0 0.0 0.00 0.00 0.00 83 1014.5
20260905144511 52 121 0.0 0.0 0.00 0.00 0.00 84 1014.6
20260905143010 50 121 0.0 0.0 0.00 0.00 0.00 84 1014.6
20260905141508 50 222 0.0 0.0 0.00 0.00 0.00 84 1014.3
20260905140008 50 222 0.0 0.0 0.00 0.00 0.00 84 1014.3
20260905134505 50 222 0.0 0.0 0.00 0.00 0.00 83 1014.2
20260905133007 50 247 0.0 0.0 0.00 0.00 0.00 83 1014.1
20260905131503 50 247 0.0 0.0 0.00 0.00 0.00 82 1013.9
20260905130000 51 247 0.0 0.0 0.00 0.00 0.00 80 1013.9
20260905124558 52 247 0.0 0.0 0.00 0.00 0.00 78 1013.9
20260905123100 53 247 0.0 0.0 0.00 0.00 0.00 77 1013.9
20260905121601 52 247 0.0 0.0 0.00 0.00 0.00 78 1013.9
20260905120056 53 247 0.0 0.0 0.00 0.00 0.00 79 1014.0
20260905114555 53 260 0.0 0.0 0.00 0.00 0.00 81 1014.0